Location: Madrid
(40.4000°N, 3.6830°W)
Time: 13:56:08
(UTC+01:00)

ISS - Pass Details

Date: 13 December 2017
Orbit: 402 x 406 km, 51.6° (Epoch: 16 December)

Event Time Altitude Azimuth Distance (km) Brightness Sun altitude
Rises 19:36:57 0° 307° (NW) 2,329 0.6 -19.9°
Reaches altitude 10° 19:39:03 10° 309° (NW) 1,466 -0.5 -20.3°
Enters shadow 19:41:45 56° 322° (NW) 485 -3.4 -20.8°
